Weather History for KTBN - August, 2013

Change the Weather History Date:

Tuesday, August 27, 2013

  Actual Average Record
Temperature  
Mean Temperature 79 °F -  
Max Temperature 89 °F 85 °F 92 °F (2014)
Min Temperature 70 °F 66 °F 54 °F (2010)
Cooling Degree Days 14    
Growing Degree Days 29 (Base 50)    
Moisture  
Dew Point 71 °F    
Average Humidity 76    
Maximum Humidity 98    
Minimum Humidity 50    
Precipitation  
Precipitation 0.00 in - - ()
Sea Level Pressure  
Sea Level Pressure 30.08 in    
Wind  
Wind Speed 4 mph (SW)    
Max Wind Speed 7 mph    
Max Gust Speed -    
Visibility 10 miles    
Events      
Averages and records for this station are not official NWS values.
T = Trace of Precipitation, MM = Missing Value Source: NWS Daily Summary

Daily Weather History Graph

Daily Weather History Graph

Search for Another Location

Airport or City:

Trip Planner

Search our weather history database for the weather conditions in past years. The results will help you decide how hot, cold, wet, or windy it might be!

Date:

Astronomy

Aug. 27, 2013 Rise Set
Actual Time 6:34 AM CDT 7:44 PM CDT
Civil Twilight 6:07 AM CDT 8:11 PM CDT
Nautical Twilight 5:35 AM CDT 8:43 PM CDT
Astronomical Twilight 5:01 AM CDT 9:17 PM CDT
Moon 11:46 PM CDT (8/27) 1:24 PM CDT (8/27)
Length of Visible Light 14h 04m
Length of Day
13h 10m
Waning Gibbous, 57% of the Moon is Illuminated
Aug 27
Waning Gibbous
Aug 28
Last Quarter
Sep 5
New
Sep 12
First Quarter
Sep 19
Full

Hourly Weather History & Observations

Time (CDT) Temp. Heat Index Dew Point Humidity Pressure Visibility Wind Dir Wind Speed Gust Speed Precip Events Conditions
12:58 AM 76.6 °F - 71.6 °F 84% 30.11 in 10.0 mi South 4.6 mph - N/A   Partly Cloudy
1:58 AM 76.5 °F - 71.2 °F 84% 30.10 in 10.0 mi Variable 3.5 mph - N/A   Partly Cloudy
2:58 AM 75.7 °F - 71.1 °F 85% 30.09 in 10.0 mi SSW 4.6 mph - N/A   Mostly Cloudy
3:58 AM 75.0 °F - 70.7 °F 86% 30.09 in 10.0 mi SSW 4.6 mph - N/A   Overcast
4:58 AM 72.3 °F - 70.3 °F 93% 30.09 in 10.0 mi SSW 4.6 mph - N/A   Clear
5:58 AM 71.2 °F - 70.2 °F 96% 30.09 in 10.0 mi SW 4.6 mph - N/A   Clear
6:58 AM 70.9 °F - 70.2 °F 98% 30.11 in 10.0 mi SSW 3.5 mph - N/A   Clear
7:58 AM 74.3 °F - 69.8 °F 86% 30.12 in 10.0 mi SW 4.6 mph - N/A   Clear
8:58 AM 77.9 °F - 69.8 °F 76% 30.12 in 10.0 mi SW 5.8 mph - N/A   Clear
9:58 AM 82.0 °F 86.3 °F 70.9 °F 69% 30.13 in 10.0 mi Variable 3.5 mph - N/A   Clear
10:58 AM 85.1 °F 90.4 °F 71.4 °F 63% 30.12 in 10.0 mi Variable 5.8 mph - N/A   Clear
11:58 AM 86.7 °F 91.7 °F 70.5 °F 58% 30.11 in 10.0 mi Variable 6.9 mph - N/A   Clear
12:58 PM 87.1 °F 91.3 °F 69.3 °F 55% 30.09 in 10.0 mi WSW 4.6 mph - N/A   Clear
1:58 PM 88.9 °F 92.6 °F 68.2 °F 50% 30.08 in 10.0 mi West 5.8 mph - N/A   Partly Cloudy
2:58 PM 88.0 °F 91.8 °F 68.2 °F 52% 30.05 in 10.0 mi WSW 5.8 mph - N/A   Clear
3:58 PM 87.3 °F 92.4 °F 70.5 °F 57% 30.04 in 10.0 mi SW 5.8 mph - N/A   Clear
4:58 PM 86.9 °F 92.1 °F 70.7 °F 58% 30.04 in 10.0 mi SSW 3.5 mph - N/A   Clear
5:58 PM 87.1 °F 94.1 °F 72.5 °F 62% 30.04 in 10.0 mi SSW 3.5 mph - N/A   Clear
6:58 PM 85.1 °F 92.9 °F 74.1 °F 70% 30.04 in 10.0 mi SW 2.3 mph - N/A   Clear
7:58 PM 80.2 °F 84.9 °F 73.9 °F 81% 30.04 in 10.0 mi SW 2.3 mph - N/A   Clear
8:58 PM 77.4 °F - 72.9 °F 86% 30.05 in 10.0 mi South 3.5 mph - N/A   Clear
9:58 PM 74.5 °F - 72.1 °F 92% 30.06 in 10.0 mi SSW 2.3 mph - N/A   Clear
10:58 PM 74.7 °F - 71.4 °F 90% 30.06 in 10.0 mi SW 3.5 mph - N/A   Clear
11:58 PM 73.4 °F - 70.5 °F 91% 30.06 in 10.0 mi SW 3.5 mph - N/A   Clear